# Tabular Observed and Forecast Hydrograph Information
#
# Location: Walker River - Mason at Snyder Lane (MASN2)
#
# File Generation Time: 09/03/2026 at 07:32 AM PDT
# Data Interval: 1 Hour
#
# Most Recent Date & Time of Maximum Observed: 09/03/2026 at 07:00 AM PDT
# Maximum Observed Stage: 4.17 Feet
# Maximum Observed Flow: 168 cfs
#
# Earliest Date & Time of Maximum Forecast: 09/03/2026 at 11:00 AM PDT
# Maximum Forecast Stage: 4.18 Feet
# Maximum Forecast Flow: 170 cfs
#
# OBSERVED
#
# Date & Time (Local) Stage (Feet) Flow (cfs) Trend Observed Status
# ---------------------------------------------------------------------------------
08/29/2026 07 AM PDT 4.05 149 Normal
08/29/2026 08 AM PDT 4.06 151 + Normal
08/29/2026 09 AM PDT 4.07 152 + Normal
08/29/2026 10 AM PDT 4.08 154 + Normal
08/29/2026 11 AM PDT 4.09 155 + Normal
08/29/2026 12 PM PDT 4.11 159 + Normal
08/29/2026 01 PM PDT 4.12 160 + Normal
08/29/2026 02 PM PDT 4.11 159 - Normal
08/29/2026 03 PM PDT 4.12 160 + Normal
08/29/2026 04 PM PDT 4.12 160 0 Normal
08/29/2026 05 PM PDT 4.12 160 0 Normal
08/29/2026 06 PM PDT 4.12 160 0 Normal
08/29/2026 07 PM PDT 4.09 155 - Normal
08/29/2026 08 PM PDT 4.10 157 + Normal
08/29/2026 09 PM PDT 4.09 155 - Normal
08/29/2026 10 PM PDT 4.10 157 + Normal
08/29/2026 11 PM PDT 4.10 157 0 Normal
08/30/2026 12 AM PDT 4.11 159 + Normal
08/30/2026 01 AM PDT 4.12 160 + Normal
08/30/2026 02 AM PDT 4.13 162 + Normal
08/30/2026 03 AM PDT 4.14 163 + Normal
08/30/2026 04 AM PDT 4.14 163 0 Normal
08/30/2026 05 AM PDT 4.15 165 + Normal
08/30/2026 06 AM PDT 4.14 163 - Normal
08/30/2026 07 AM PDT 4.15 165 + Normal
08/30/2026 08 AM PDT 4.14 163 - Normal
08/30/2026 09 AM PDT 4.14 163 0 Normal
08/30/2026 10 AM PDT 4.15 165 + Normal
08/30/2026 11 AM PDT 4.15 165 0 Normal
08/30/2026 12 PM PDT 4.14 163 - Normal
08/30/2026 01 PM PDT 4.14 163 0 Normal
08/30/2026 02 PM PDT 4.14 163 0 Normal
08/30/2026 03 PM PDT 4.13 162 - Normal
08/30/2026 04 PM PDT 4.12 160 - Normal
08/30/2026 05 PM PDT 4.11 159 - Normal
08/30/2026 06 PM PDT 4.11 159 0 Normal
08/30/2026 07 PM PDT 4.10 157 - Normal
08/30/2026 08 PM PDT 4.10 157 0 Normal
08/30/2026 09 PM PDT 4.09 155 - Normal
08/30/2026 10 PM PDT 4.09 155 0 Normal
08/30/2026 11 PM PDT 4.10 157 + Normal
08/31/2026 12 AM PDT 4.10 157 0 Normal
08/31/2026 01 AM PDT 4.10 157 0 Normal
08/31/2026 02 AM PDT 4.10 157 0 Normal
08/31/2026 03 AM PDT 4.10 157 0 Normal
08/31/2026 04 AM PDT 4.10 157 0 Normal
08/31/2026 05 AM PDT 4.08 154 - Normal
08/31/2026 06 AM PDT 4.08 154 0 Normal
08/31/2026 07 AM PDT 4.08 154 0 Normal
08/31/2026 08 AM PDT 4.08 154 0 Normal
08/31/2026 09 AM PDT 4.07 152 - Normal
08/31/2026 10 AM PDT 4.08 154 + Normal
08/31/2026 11 AM PDT 4.08 154 0 Normal
08/31/2026 12 PM PDT 4.10 157 + Normal
08/31/2026 01 PM PDT 4.10 157 0 Normal
08/31/2026 02 PM PDT 4.11 159 + Normal
08/31/2026 03 PM PDT 4.10 157 - Normal
08/31/2026 04 PM PDT 4.10 157 0 Normal
08/31/2026 05 PM PDT 4.09 155 - Normal
08/31/2026 06 PM PDT 4.09 155 0 Normal
08/31/2026 07 PM PDT 4.08 154 - Normal
08/31/2026 08 PM PDT 4.08 154 0 Normal
08/31/2026 09 PM PDT 4.08 154 0 Normal
08/31/2026 10 PM PDT 4.09 155 + Normal
08/31/2026 11 PM PDT 4.09 155 0 Normal
09/01/2026 12 AM PDT 4.09 155 0 Normal
09/01/2026 01 AM PDT 4.10 157 + Normal
09/01/2026 02 AM PDT 4.11 159 + Normal
09/01/2026 03 AM PDT 4.11 159 0 Normal
09/01/2026 04 AM PDT 4.11 159 0 Normal
09/01/2026 05 AM PDT 4.11 159 0 Normal
09/01/2026 06 AM PDT 4.12 160 + Normal
09/01/2026 07 AM PDT 4.12 160 0 Normal
09/01/2026 08 AM PDT 4.12 160 0 Normal
09/01/2026 09 AM PDT 4.11 159 - Normal
09/01/2026 10 AM PDT 4.12 160 + Normal
09/01/2026 11 AM PDT 4.12 160 0 Normal
09/01/2026 12 PM PDT 4.13 162 + Normal
09/01/2026 01 PM PDT 4.14 163 + Normal
09/01/2026 02 PM PDT 4.15 165 + Normal
09/01/2026 03 PM PDT 4.16 167 + Normal
09/01/2026 04 PM PDT 4.17 168 + Normal
09/01/2026 05 PM PDT 4.16 167 - Normal
09/01/2026 06 PM PDT 4.15 165 - Normal
09/01/2026 07 PM PDT 4.16 167 + Normal
09/01/2026 08 PM PDT 4.15 165 - Normal
09/01/2026 09 PM PDT 4.14 163 - Normal
09/01/2026 10 PM PDT 4.15 165 + Normal
09/01/2026 11 PM PDT 4.15 165 0 Normal
09/02/2026 12 AM PDT 4.16 167 + Normal
09/02/2026 01 AM PDT 4.16 167 0 Normal
09/02/2026 02 AM PDT 4.15 165 - Normal
09/02/2026 03 AM PDT 4.15 165 0 Normal
09/02/2026 04 AM PDT 4.14 163 - Normal
09/02/2026 05 AM PDT 4.14 163 0 Normal
09/02/2026 06 AM PDT 4.14 163 0 Normal
09/02/2026 07 AM PDT 4.13 162 - Normal
09/02/2026 08 AM PDT 4.14 163 + Normal
09/02/2026 09 AM PDT 4.14 163 0 Normal
09/02/2026 10 AM PDT 4.14 163 0 Normal
09/02/2026 11 AM PDT 4.14 163 0 Normal
09/02/2026 12 PM PDT 4.15 165 + Normal
09/02/2026 01 PM PDT 4.16 167 + Normal
09/02/2026 02 PM PDT 4.16 167 0 Normal
09/02/2026 03 PM PDT 4.16 167 0 Normal
09/02/2026 04 PM PDT 4.17 168 + Normal
09/02/2026 05 PM PDT 4.17 168 0 Normal
09/02/2026 06 PM PDT 4.17 168 0 Normal
09/02/2026 07 PM PDT 4.16 167 - Normal
09/02/2026 08 PM PDT 4.15 165 - Normal
09/02/2026 09 PM PDT 4.16 167 + Normal
09/02/2026 10 PM PDT 4.16 167 0 Normal
09/02/2026 11 PM PDT 4.16 167 0 Normal
09/03/2026 12 AM PDT 4.16 167 0 Normal
09/03/2026 01 AM PDT 4.16 167 0 Normal
09/03/2026 02 AM PDT 4.16 167 0 Normal
09/03/2026 03 AM PDT 4.16 167 0 Normal
09/03/2026 04 AM PDT 4.16 167 0 Normal
09/03/2026 05 AM PDT 4.16 167 0 Normal
09/03/2026 06 AM PDT 4.16 167 0 Normal
09/03/2026 07 AM PDT 4.17 168 + Normal
#
# FORECAST
#
# Date & Time (Local) Stage (Feet) Flow (cfs) Trend Forecast Status
# ---------------------------------------------------------------------------------
09/03/2026 08 AM PDT 4.17 168 Normal
09/03/2026 09 AM PDT 4.17 168 0 Normal
09/03/2026 10 AM PDT 4.17 168 0 Normal
09/03/2026 11 AM PDT 4.18 170 + Normal
09/03/2026 12 PM PDT 4.18 170 0 Normal
09/03/2026 01 PM PDT 4.18 170 0 Normal
09/03/2026 02 PM PDT 4.18 170 0 Normal
09/03/2026 03 PM PDT 4.17 168 - Normal
09/03/2026 04 PM PDT 4.17 168 0 Normal
09/03/2026 05 PM PDT 4.17 168 0 Normal
09/03/2026 06 PM PDT 4.17 168 0 Normal
09/03/2026 07 PM PDT 4.17 168 0 Normal
09/03/2026 08 PM PDT 4.16 167 - Normal
09/03/2026 09 PM PDT 4.15 165 - Normal
09/03/2026 10 PM PDT 4.15 165 0 Normal
09/03/2026 11 PM PDT 4.14 163 - Normal
09/04/2026 12 AM PDT 4.14 163 0 Normal
09/04/2026 01 AM PDT 4.13 162 - Normal
09/04/2026 02 AM PDT 4.13 162 0 Normal
09/04/2026 03 AM PDT 4.12 160 - Normal
09/04/2026 04 AM PDT 4.12 160 0 Normal
09/04/2026 05 AM PDT 4.12 160 0 Normal
09/04/2026 06 AM PDT 4.12 160 0 Normal
09/04/2026 07 AM PDT 4.12 160 0 Normal
09/04/2026 08 AM PDT 4.11 159 - Normal
09/04/2026 09 AM PDT 4.11 159 0 Normal
09/04/2026 10 AM PDT 4.11 159 0 Normal
09/04/2026 11 AM PDT 4.11 159 0 Normal
09/04/2026 12 PM PDT 4.11 159 0 Normal
09/04/2026 01 PM PDT 4.11 159 0 Normal
09/04/2026 02 PM PDT 4.11 159 0 Normal
09/04/2026 03 PM PDT 4.10 157 - Normal
09/04/2026 04 PM PDT 4.10 157 0 Normal
09/04/2026 05 PM PDT 4.10 157 0 Normal
09/04/2026 06 PM PDT 4.11 159 + Normal
09/04/2026 07 PM PDT 4.11 159 0 Normal
09/04/2026 08 PM PDT 4.11 159 0 Normal
09/04/2026 09 PM PDT 4.11 159 0 Normal
09/04/2026 10 PM PDT 4.11 159 0 Normal
09/04/2026 11 PM PDT 4.11 159 0 Normal
09/05/2026 12 AM PDT 4.11 159 0 Normal
09/05/2026 01 AM PDT 4.11 159 0 Normal
09/05/2026 02 AM PDT 4.11 159 0 Normal
09/05/2026 03 AM PDT 4.11 159 0 Normal
09/05/2026 04 AM PDT 4.10 157 - Normal
09/05/2026 05 AM PDT 4.10 157 0 Normal
09/05/2026 06 AM PDT 4.10 157 0 Normal
09/05/2026 07 AM PDT 4.10 157 0 Normal
09/05/2026 08 AM PDT 4.10 157 0 Normal
09/05/2026 09 AM PDT 4.10 157 0 Normal
09/05/2026 10 AM PDT 4.10 157 0 Normal
09/05/2026 11 AM PDT 4.10 157 0 Normal
09/05/2026 12 PM PDT 4.10 157 0 Normal
09/05/2026 01 PM PDT 4.10 157 0 Normal
09/05/2026 02 PM PDT 4.10 157 0 Normal
09/05/2026 03 PM PDT 4.10 157 0 Normal
09/05/2026 04 PM PDT 4.10 157 0 Normal
09/05/2026 05 PM PDT 4.10 157 0 Normal
09/05/2026 06 PM PDT 4.11 159 + Normal
09/05/2026 07 PM PDT 4.11 159 0 Normal
09/05/2026 08 PM PDT 4.11 159 0 Normal
09/05/2026 09 PM PDT 4.11 159 0 Normal
09/05/2026 10 PM PDT 4.11 159 0 Normal
09/05/2026 11 PM PDT 4.11 159 0 Normal
09/06/2026 12 AM PDT 4.11 159 0 Normal
09/06/2026 01 AM PDT 4.11 159 0 Normal
09/06/2026 02 AM PDT 4.11 159 0 Normal
09/06/2026 03 AM PDT 4.11 159 0 Normal
09/06/2026 04 AM PDT 4.11 159 0 Normal
09/06/2026 05 AM PDT 4.11 159 0 Normal
09/06/2026 06 AM PDT 4.11 159 0 Normal
09/06/2026 07 AM PDT 4.11 159 0 Normal
09/06/2026 08 AM PDT 4.11 159 0 Normal
09/06/2026 09 AM PDT 4.11 159 0 Normal
09/06/2026 10 AM PDT 4.11 159 0 Normal
09/06/2026 11 AM PDT 4.11 159 0 Normal
09/06/2026 12 PM PDT 4.11 159 0 Normal
09/06/2026 01 PM PDT 4.11 159 0 Normal
09/06/2026 02 PM PDT 4.11 159 0 Normal
09/06/2026 03 PM PDT 4.11 159 0 Normal
09/06/2026 04 PM PDT 4.11 159 0 Normal
09/06/2026 05 PM PDT 4.11 159 0 Normal
09/06/2026 06 PM PDT 4.12 160 + Normal
09/06/2026 07 PM PDT 4.12 160 0 Normal
09/06/2026 08 PM PDT 4.12 160 0 Normal
09/06/2026 09 PM PDT 4.12 160 0 Normal
09/06/2026 10 PM PDT 4.12 160 0 Normal
09/06/2026 11 PM PDT 4.12 160 0 Normal
09/07/2026 12 AM PDT 4.12 160 0 Normal
09/07/2026 01 AM PDT 4.12 160 0 Normal
09/07/2026 02 AM PDT 4.12 160 0 Normal
09/07/2026 03 AM PDT 4.12 160 0 Normal
09/07/2026 04 AM PDT 4.12 160 0 Normal
09/07/2026 05 AM PDT 4.12 160 0 Normal
09/07/2026 06 AM PDT 4.12 160 0 Normal
09/07/2026 07 AM PDT 4.12 160 0 Normal
09/07/2026 08 AM PDT 4.12 160 0 Normal
09/07/2026 09 AM PDT 4.12 160 0 Normal
09/07/2026 10 AM PDT 4.12 160 0 Normal
09/07/2026 11 AM PDT 4.12 160 0 Normal
09/07/2026 12 PM PDT 4.12 160 0 Normal
09/07/2026 01 PM PDT 4.12 160 0 Normal
09/07/2026 02 PM PDT 4.12 160 0 Normal
09/07/2026 03 PM PDT 4.12 160 0 Normal
09/07/2026 04 PM PDT 4.12 160 0 Normal
09/07/2026 05 PM PDT 4.12 160 0 Normal
09/07/2026 06 PM PDT 4.13 162 + Normal
09/07/2026 07 PM PDT 4.13 162 0 Normal
09/07/2026 08 PM PDT 4.13 162 0 Normal
09/07/2026 09 PM PDT 4.13 162 0 Normal
09/07/2026 10 PM PDT 4.13 162 0 Normal
09/07/2026 11 PM PDT 4.13 162 0 Normal
09/08/2026 12 AM PDT 4.13 162 0 Normal
09/08/2026 01 AM PDT 4.13 162 0 Normal
09/08/2026 02 AM PDT 4.13 162 0 Normal
09/08/2026 03 AM PDT 4.13 162 0 Normal
09/08/2026 04 AM PDT 4.13 162 0 Normal
09/08/2026 05 AM PDT 4.13 162 0 Normal
#
# NOTE 1: Stages are rounded to the nearest hundredth (.01) of a foot.
# NOTE 2: Flows are rounded to the nearest (1) cfs.
# NOTE 3: Trends are determined using hourly change in unrounded stage and flow.
# NOTE 4: Maximum Values are determined using unrounded stage and flow.
|